SCP
0 0 0 0 0 0 0 0 0 0 0 0 0 0 0 0 0 0 0 0 0 0 0 0 0 0 0 0 0 0 0 0 0 0 0 0 0 0 0 0 0 0 0
0 0 0 0 0 0 0 0 0 0 0 0 0 0 0 0 0 0 0 0 0 0 0 0 0 0 0 0 0 0 0 0 0 0 0 0 0 0 0 0 0 0 0
0 0 0 0 0 0 0 0 0 0 0 0 0 0 0 0 0 0 0 0 0 0 0 0 0 0 0 0 0 0 0 0 0 0 0 0 0 0 0 0 0 0 0
0 0 0 0 0 0 0 0 0 0 0 0 0 0 0 0 0 0 0 0 0 0 0 0 0 0 0 0 0 0 0 0 0 0 0 0 0 0 0 0 0 0 0
0 0 0 0 0 0 0 0 0 0 0 0 0 0 0 0 0 0 0 0 0 0 0 0 0 0 0 0 0 0 0 0 0 0 0 0 0 0 0 0 0 0 0
0 0 0 0 0 0 0 0 0 0 0 0 0 0 0 0 0 0 0 0 0 0 0 0 0 0 0 0 0 0 0 0 0 0 0 0 0 0 0 0 0 0 0
0 0 0 0 0 0 0 0 0 0 0 0 0 0 0 0 0 0 0 0 0 0 0 0 0 0 0 0 0 0 0 0 0 0 0 0 0 0 0 0 0 0 0
0 0 0 0 0 0 0 0 0 0 0 0 0 0 0 0 0 0 0 0 0 0 0 0 0 0 0 0 0 0 0 0 0 0 0 0 0 0 0 0 0 0 0
0 0 0 0 0 0 0 0 0 0 0 0 0 0 0 0 0 0 0 0 0 0 0 0 0 0 0 0 0 0 0 0 0 0 0 0 0 0 0 0 0 0 0
0 0 0 0 0 0 0 0 0 0 0 0 0 0 0 0 0 0 0 0 0 0 0 0 0 0 0 0 0 0 0 0 0 0 0 0 0 0 0 0 0 0 0
0 0 0 0 0 0 0 0 0 0 0 0 0 0 0 0 0 0 0 0 0 0 0 0 0 0 0 0 0 0 0 0 0 0 0 0 0 0 0 0 0 0 0
0 0 0 0 0 0 0 0 0 0 0 0 0 0 0 0 0 0 0 0 0 0 0 0 0 0 0 0 0 0 0 0 0 0 0 0 0 0 0 0 0 0 0
0 0 0 0 0 0 0 0 0 0 0 0 0 0 0 0 0 0 0 0 0 0 0 0 0 0 0 0 0 0 0 0 0 0 0 0 0 0 0 0 0 0 0
0 0 0 0 0 0 0 0 0 0 0 0 0 0 0 0 0 0 0 0 0 0 0 0 0 0 0 0 0 0 0 0 0 0 0 0 0 0 0 0 0 0 0
0 0 0 0 0 0 0 0 0 0 0 0 0 0 0 0 0 0 0 0 0 0 0 0 0 0 0 0 0 0 0 0 0 0 0 0 0 0 0 0 0 0 0
0 0 0 0 0 0 0 0 0 0 0 0 0 0 0 0 0 0 0 0 0 0 0 0 0 0 0 0 0 0 0 0 0 0 0 0 0 0 0 0 0 0 0
0 0 0 0 0 0 0 0 0 0 0 0 0 0 0 0 0 0 0 0 0 0 0 0 0 0 0 0 0 0 0 0 0 0 0 0 0 0 0 0 0 0 0
0 0 0 0 0 0 0 0 0 0 0 0 0 0 0 0 0 0 0 0 0 0 0 0 0 0 0 0 0 0 0 0 0 0 0 0 0 0 0 0 0 0 0
0 0 0 0 0 0 0 0 0 0 0 0 0 0 0 0 0 0 0 0 0 0 0 0 0 0 0 0 0 0 0 0 0 0 0 0 0 0 0 0 0 0 0
0 0 0 0 0 0 0 0 0 0 0 0 0 0 0 0 0 0 0 0 0 0 0 0 0 0 0 0 0 0 0 0 0 0 0 0 0 0 0 0 0 0 0
0 0 0 0 0 0 0 0 0 0 0 0 0 0 0 0 0 0 0 0 0 0 0 0 0 0 0 0 0 0 0 0 0 0 0 0 0 0 0 0 0 0 0
0 0 0 0 0 0 0 0 0 0 0 0 0 0 0 0 0 0 0 0 0 0 0 0 0 0 0 0 0 0 0 0 0 0 0 0 0 0 0 0 0 0 0
0 0 0 0 0 0 0 0 0 0 0 0 0 0 0 0 0 0 0 0 0 0 0 0 0 0 0 0 0 0 0 0 0 0 0 0 0 0 0 0 0 0 0
0 0 0 0 0 0 0 0 0 0 0 0 0 0 0 0 0 0 0 0 0 0 0 0 0 0 0 0 0 0 0 0 0 0 0 0 0 0 0 0 0 0 0
0 0 0 0 0 0 0 0 0 0 0 0 0 0 0 0 0 0 0 0 0 0 0 0 0 0 0 0 0 0 0 0 0 0 0 0 0 0 0 0 0 0 0
0 0 0 0 0 0 0 0 0 0 0 0 0 0 0 0 0 0 0 0 0 0 0 0 0 0 0 0 0 0 0 0 0 0 0 0 0 0 0 0 0 0 0
Wind_Speed
5 7 7 7 8 9 9 9 10 11 10 10 10 11 11 12 12 12 12 12 13 13 14 14 15 15 15 16 16 16 16 16 16 16 16 15 16 16 16 15 14 11 17
7 8 8 8 9 9 9 9 10 10 10 10 10 10 11 12 12 12 12 12 12 13 13 14 15 15 15 15 15 15 14 14 13 13 13 13 14 16 17 16 15 11 17
8 8 8 8 9 9 9 10 10 10 10 10 9 10 11 11 11 12 12 12 12 13 13 14 14 14 14 14 14 14 13 12 11 10 10 7 10 16 17 16 16 17 17
7 7 7 8 9 9 10 10 10 10 10 10 10 10 10 11 11 11 12 12 12 13 13 14 14 14 14 14 13 12 11 11 10 10 7 7 8 14 16 16 16 17 17
6 7 7 8 9 10 10 10 10 10 9 9 9 10 10 10 11 11 11 12 12 12 13 13 13 13 13 13 12 11 10 10 10 9 7 7 6 13 15 16 16 16 17
5 6 7 8 9 9 10 9 9 10 9 9 9 9 9 10 10 11 11 11 11 12 12 13 13 13 12 12 11 10 10 9 8 7 7 7 6 13 15 15 15 16 16
5 6 6 8 8 9 9 9 9 9 9 9 9 9 9 10 10 10 11 11 11 11 12 12 12 12 12 11 11 10 10 9 7 7 7 6 7 13 15 15 15 15 15
5 6 6 7 7 8 9 9 9 9 9 9 9 8 9 9 10 10 10 11 11 11 12 12 12 12 12 11 11 10 10 9 8 9 7 6 10 13 14 14 15 15 15
5 5 4 4 5 6 7 8 8 8 9 9 9 9 9 9 9 10 10 11 11 11 11 11 12 11 11 11 10 10 10 10 7 6 8 6 10 13 14 14 15 15 15
4 4 4 3 3 4 4 7 8 8 8 8 8 8 8 8 8 9 9 10 10 10 11 11 11 11 10 10 9 9 9 7 6 7 5 6 12 13 14 14 15 15 15
3 3 3 3 3 3 4 6 6 7 7 7 6 7 5 4 4 5 7 9 10 10 10 11 10 10 9 8 8 8 6 4 6 5 5 10 12 13 14 14 14 15 15
3 3 2 2 3 3 3 3 3 3 4 3 3 3 2 3 4 5 7 9 9 9 9 9 8 7 4 3 4 5 3 5 5 5 6 11 12 13 13 13 14 14 14
3 3 2 2 3 3 2 2 2 2 2 2 3 3 3 3 3 3 3 4 5 6 4 5 4 3 3 3 3 3 4 4 4 4 6 11 12 12 13 13 13 13 13
3 3 2 2 3 3 3 2 2 2 2 2 2 3 3 2 2 2 2 3 3 2 3 2 2 3 3 4 3 4 5 4 4 4 6 11 11 11 12 12 12 12 12
3 3 2 2 3 3 3 2 3 2 2 3 2 3 3 2 2 3 2 2 3 3 3 2 3 4 4 4 4 5 5 5 5 5 4 9 10 10 11 11 11 12 11
3 3 3 3 3 3 3 3 2 2 2 3 2 3 3 2 2 3 3 2 2 3 3 3 3 4 3 4 4 5 5 5 5 5 4 6 9 9 10 11 11 11 11
3 3 3 4 3 3 3 3 3 2 2 2 2 3 3 2 3 3 3 2 2 3 3 3 3 4 4 4 4 5 4 4 5 5 4 4 4 7 9 10 10 10 10
2 3 3 3 3 3 3 3 3 3 3 2 2 2 3 3 3 3 3 2 2 3 3 3 3 4 4 4 3 3 4 4 5 5 5 4 4 4 6 9 9 10 10
3 4 4 4 4 3 3 3 3 3 3 2 2 2 2 3 3 3 3 2 3 3 3 3 3 3 4 4 4 4 4 4 4 5 5 5 4 4 3 6 9 9 9
3 4 4 4 4 4 3 3 3 3 3 2 2 2 2 2 3 3 3 2 3 3 3 3 4 4 4 4 5 4 3 3 4 4 4 4 4 4 4 4 4 5 8
3 3 4 4 4 4 3 3 3 2 2 2 1 2 3 3 3 3 3 2 3 3 4 4 4 5 4 3 4 3 3 4 4 3 3 3 4 4 4 4 3 3 3
3 3 4 4 4 4 3 3 2 3 2 2 1 2 2 3 3 3 3 2 3 4 4 4 5 3 2 2 3 3 2 2 3 2 3 3 3 3 4 4 4 4 3
2 2 3 3 3 4 4 3 3 3 2 2 2 2 2 2 3 3 3 2 3 4 4 4 4 4 3 1 2 3 3 3 1 1 2 2 3 3 2 2 3 3 4
1 2 2 3 3 4 4 4 5 4 3 2 2 2 2 2 3 3 3 3 4 3 4 3 3 3 5 3 1 1 2 3 4 1 1 1 2 2 2 2 2 2 3
1 1 2 2 2 3 4 4 4 4 3 3 3 3 3 2 3 3 3 3 4 3 4 3 3 3 3 3 2 1 1 2 2 3 2 1 1 1 1 1 1 1 2
1 1 2 2 2 3 4 4 4 4 4 4 4 4 3 2 2 2 2 3 3 3 4 4 4 3 3 3 2 2 2 2 2 2 2 1 1 1 0 0 1 1 1
Wind_Direction
104 118 128 120 114 109 103 98 96 94 93 97 99 98 96 93 91 90 88 87 86 84 83 83 80 77 75 74 72 72 72 73 74 72 68 68 69 71 71 69 69 69 72
113 123 129 123 117 112 108 102 98 96 93 95 100 100 99 96 93 92 90 88 87 86 84 84 82 80 77 76 75 73 73 73 73 72 68 63 65 70 71 68 71 74 74
113 124 129 121 119 115 111 106 104 101 99 95 98 101 100 100 97 95 92 90 89 88 87 84 82 81 79 77 75 73 72 69 65 65 69 67 68 71 73 72 73 75 75
113 123 128 121 118 118 115 111 108 105 102 98 96 99 101 102 100 97 95 92 90 89 88 86 83 82 81 79 76 73 67 59 54 60 65 68 69 73 74 73 74 74 75
106 114 120 121 119 118 116 115 112 109 105 101 101 98 101 101 101 99 96 93 91 89 89 88 85 83 82 80 76 72 61 50 49 58 64 65 66 75 75 74 74 74 75
103 109 119 121 122 120 115 113 114 112 110 105 102 102 100 102 101 100 95 93 94 93 92 89 87 86 83 80 75 66 54 45 51 63 66 65 64 74 77 76 75 76 77
97 104 119 120 125 122 118 114 111 113 112 110 106 105 103 103 101 99 96 94 94 96 95 92 89 89 85 79 70 58 48 47 64 66 64 63 67 76 78 78 77 77 78
94 101 113 114 121 123 120 116 112 109 109 108 108 106 103 99 103 101 97 95 95 96 97 93 91 89 85 78 67 53 44 50 65 72 68 62 70 78 80 79 78 77 78
87 96 104 114 120 122 121 116 113 109 107 106 103 103 100 96 100 101 99 97 96 95 93 93 92 89 85 79 69 55 48 49 54 66 73 65 71 79 81 80 79 78 77
81 89 97 101 113 115 123 122 115 109 105 106 103 101 101 97 97 102 99 98 98 97 95 94 94 90 85 78 69 58 49 50 60 64 64 70 75 79 81 81 80 79 79
85 85 96 96 98 105 119 122 116 113 108 108 108 110 110 104 96 103 102 101 99 99 97 96 97 92 85 75 67 59 48 57 65 67 64 73 78 80 81 81 83 82 81
120 95 94 97 102 102 109 110 112 115 119 108 105 113 101 88 88 98 106 103 100 99 98 97 95 90 82 75 64 58 58 62 66 69 69 74 78 80 82 82 83 83 81
135 117 101 101 98 98 90 103 93 88 95 95 98 98 99 94 100 100 111 106 107 106 101 102 98 88 77 72 70 61 62 65 69 68 69 72 77 81 82 82 82 82 81
134 125 95 95 97 90 87 90 88 83 83 78 77 82 87 94 96 91 105 118 116 109 103 97 97 88 84 80 77 71 68 71 73 74 72 71 73 80 85 84 82 82 82
143 139 116 100 101 101 96 93 90 82 83 84 71 69 79 95 106 103 93 104 103 105 106 94 90 86 78 70 71 74 74 76 78 76 74 72 72 75 83 85 83 82 83
154 149 130 115 106 103 98 90 88 82 78 82 78 72 70 84 97 101 88 93 103 103 99 100 97 92 84 79 71 69 71 75 77 81 83 75 72 73 79 84 84 83 83
164 146 137 128 114 112 105 100 90 84 88 83 79 80 76 79 97 103 97 87 103 101 98 97 91 92 89 84 75 68 70 73 73 74 78 79 72 69 75 80 81 81 80
146 138 133 131 124 120 115 111 105 96 89 85 84 86 87 83 96 106 97 86 101 103 108 111 106 103 97 89 81 72 66 68 68 68 67 68 68 67 66 71 73 76 78
149 146 140 132 136 135 125 115 106 99 90 82 82 81 89 93 95 107 104 92 111 109 109 118 110 109 108 97 88 79 71 71 67 69 68 64 65 72 71 68 65 67 71
149 147 147 144 144 141 136 120 104 94 93 86 80 86 95 93 94 106 112 102 118 117 109 107 112 100 106 106 98 82 71 75 70 64 69 64 60 62 66 68 64 60 63
139 147 152 151 157 152 157 158 147 135 122 110 94 102 107 107 104 102 106 118 128 122 122 119 117 115 107 108 98 82 58 69 76 64 62 63 58 58 64 61 59 62 60
153 159 157 156 160 159 161 163 154 140 128 128 125 107 94 106 109 112 103 123 132 125 122 122 123 117 119 117 123 127 104 60 43 61 69 70 66 61 63 66 63 63 68
147 168 169 167 161 159 152 138 132 117 113 120 139 134 111 115 115 114 108 119 128 127 136 137 136 127 141 126 91 125 139 162 124 24 63 73 70 65 57 64 66 60 69
170 165 164 163 168 167 160 159 155 157 156 165 156 138 129 119 115 111 116 124 129 127 130 143 134 131 140 145 119 53 99 129 141 141 1 64 72 67 63 58 65 70 72
95 157 150 149 168 169 163 162 165 162 147 133 136 135 139 132 122 116 130 136 132 134 137 135 125 123 134 140 141 120 86 76 102 136 168 196 31 44 65 52 85 97 85
56 88 148 157 167 176 165 163 170 163 149 142 146 150 148 136 126 129 143 139 136 138 146 144 137 129 127 125 121 121 130 140 156 138 151 170 196 238 293 241 170 128 103